TimeMST,TemperatureF,Dew PointF,Humidity,Sea Level PressureIn,VisibilityMPH,Wind Direction,Wind SpeedMPH,Gust SpeedMPH,PrecipitationIn,Events,Conditions,WindDirDegrees,DateUTC
12:15 AM,-18.4,-25.6,70,30.08,-9999.0,Calm,Calm,-,N/A,,Clear,0,2012-12-30 07:15:00
12:35 AM,-20.2,-27.4,69,30.08,-9999.0,Calm,Calm,-,N/A,,Clear,0,2012-12-30 07:35:00
12:55 AM,-20.2,-27.4,69,30.07,-9999.0,Calm,Calm,-,N/A,,Clear,0,2012-12-30 07:55:00
1:15 AM,-22.0,-29.2,69,30.08,-9999.0,Calm,Calm,-,N/A,,Clear,0,2012-12-30 08:15:00
1:34 AM,-22.0,-29.2,69,30.08,-9999.0,Calm,Calm,-,N/A,,Clear,0,2012-12-30 08:34:00
1:54 AM,-22.0,-29.2,69,30.08,-9999.0,Calm,Calm,-,N/A,,Clear,0,2012-12-30 08:54:00
2:15 AM,-22.0,-29.2,69,30.09,-9999.0,Calm,Calm,-,N/A,,Clear,0,2012-12-30 09:15:00
2:35 AM,-20.2,-29.2,63,30.10,-9999.0,Calm,Calm,-,N/A,,Clear,0,2012-12-30 09:35:00
2:55 AM,-20.2,-27.4,69,30.10,-9999.0,Calm,Calm,-,N/A,,Clear,0,2012-12-30 09:55:00
3:15 AM,-20.2,-27.4,69,30.10,-9999.0,Calm,Calm,-,N/A,,Clear,0,2012-12-30 10:15:00
3:34 AM,-20.2,-27.4,69,30.10,-9999.0,Calm,Calm,-,N/A,,Clear,0,2012-12-30 10:34:00
3:55 AM,-20.2,-27.4,69,30.10,-9999.0,Calm,Calm,-,N/A,,Clear,0,2012-12-30 10:55:00
4:14 AM,-20.2,-27.4,69,30.10,-9999.0,Calm,Calm,-,N/A,,Mostly Cloudy,0,2012-12-30 11:14:00
4:34 AM,-20.2,-27.4,69,30.10,-9999.0,Calm,Calm,-,N/A,,Scattered Clouds,0,2012-12-30 11:34:00
4:55 AM,-20.2,-27.4,69,30.10,-9999.0,Calm,Calm,-,N/A,,Clear,0,2012-12-30 11:55:00
5:15 AM,-20.2,-27.4,69,30.09,-9999.0,Calm,Calm,-,N/A,,Clear,0,2012-12-30 12:15:00
5:35 AM,-20.2,-27.4,69,30.09,-9999.0,Calm,Calm,-,N/A,,Clear,0,2012-12-30 12:35:00
5:54 AM,-22.0,-29.2,69,30.09,-9999.0,Calm,Calm,-,N/A,,Clear,0,2012-12-30 12:54:00
6:15 AM,-22.0,-29.2,69,30.09,-9999.0,Calm,Calm,-,N/A,,Clear,0,2012-12-30 13:15:00
6:34 AM,-20.2,-27.4,69,30.08,-9999.0,Calm,Calm,-,N/A,,Clear,0,2012-12-30 13:34:00
6:55 AM,-20.2,-27.4,69,30.08,-9999.0,Calm,Calm,-,N/A,,Clear,0,2012-12-30 13:55:00
7:15 AM,-20.2,-27.4,69,30.08,-9999.0,Calm,Calm,-,N/A,,Clear,0,2012-12-30 14:15:00
7:35 AM,-22.0,-29.2,69,30.08,-9999.0,Calm,Calm,-,N/A,,Clear,0,2012-12-30 14:35:00
7:55 AM,-18.4,-27.4,63,30.08,-9999.0,Calm,Calm,-,N/A,Snow,Light Snow,0,2012-12-30 14:55:00
8:14 AM,-18.4,-25.6,70,30.08,-9999.0,Calm,Calm,-,N/A,,Clear,0,2012-12-30 15:14:00
8:35 AM,-16.6,-25.6,64,30.08,-9999.0,Calm,Calm,-,N/A,Snow,Light Snow,0,2012-12-30 15:35:00
8:55 AM,-13.0,-20.2,70,30.08,-9999.0,Calm,Calm,-,N/A,,Clear,0,2012-12-30 15:55:00
9:14 AM,-9.4,-18.4,65,30.08,-9999.0,Calm,Calm,-,N/A,,Clear,0,2012-12-30 16:14:00
9:35 AM,-9.4,-16.6,71,30.08,-9999.0,Calm,Calm,-,N/A,,Clear,0,2012-12-30 16:35:00
9:55 AM,-9.4,-18.4,65,30.08,-9999.0,Calm,Calm,-,N/A,,Clear,0,2012-12-30 16:55:00
10:15 AM,-5.8,-13.0,71,30.08,-9999.0,Calm,Calm,-,N/A,,Clear,0,2012-12-30 17:15:00
10:35 AM,-4.0,-13.0,65,30.07,-9999.0,Calm,Calm,-,N/A,,Clear,0,2012-12-30 17:35:00
10:55 AM,-2.2,-13.0,60,30.07,-9999.0,Calm,Calm,-,N/A,,Clear,0,2012-12-30 17:55:00
11:15 AM,-4.0,-13.0,65,30.06,-9999.0,Calm,Calm,-,N/A,,Clear,0,2012-12-30 18:15:00
11:35 AM,-2.2,-13.0,60,30.04,-9999.0,Calm,Calm,-,N/A,,Clear,0,2012-12-30 18:35:00
11:54 AM,-2.2,-14.8,55,30.03,-9999.0,Calm,Calm,-,N/A,,Clear,0,2012-12-30 18:54:00
12:15 PM,-2.2,-14.8,55,30.01,-9999.0,Calm,Calm,-,N/A,,Clear,0,2012-12-30 19:15:00
12:35 PM,-2.2,-14.8,55,30.00,-9999.0,Calm,Calm,-,N/A,,Clear,0,2012-12-30 19:35:00
12:55 PM,-2.2,-14.8,55,29.99,-9999.0,Calm,Calm,-,N/A,,Clear,0,2012-12-30 19:55:00
1:14 PM,-2.2,-13.0,60,29.99,-9999.0,Calm,Calm,-,N/A,,Clear,0,2012-12-30 20:14:00
1:35 PM,-0.4,-13.0,55,29.98,-9999.0,Calm,Calm,-,N/A,,Clear,0,2012-12-30 20:35:00
1:54 PM,-0.4,-9.4,66,29.97,-9999.0,Calm,Calm,-,N/A,,Clear,0,2012-12-30 20:54:00
2:15 PM,-0.4,-9.4,66,29.97,-9999.0,Calm,Calm,-,N/A,,Scattered Clouds,0,2012-12-30 21:15:00
2:35 PM,-0.4,-9.4,66,29.96,-9999.0,Calm,Calm,-,N/A,,Clear,0,2012-12-30 21:35:00
2:55 PM,-0.4,-9.4,66,29.97,-9999.0,Calm,Calm,-,N/A,,Scattered Clouds,0,2012-12-30 21:55:00
3:15 PM,-0.4,-9.4,66,29.97,-9999.0,Calm,Calm,-,N/A,,Mostly Cloudy,0,2012-12-30 22:15:00
3:35 PM,-0.4,-9.4,66,29.96,-9999.0,Calm,Calm,-,N/A,,Overcast,0,2012-12-30 22:35:00
3:54 PM,-0.4,-9.4,66,29.96,-9999.0,Calm,Calm,-,N/A,,Overcast,0,2012-12-30 22:54:00
4:15 PM,-0.4,-9.4,66,29.96,-9999.0,Calm,Calm,-,N/A,,Overcast,0,2012-12-30 23:15:00
4:35 PM,-0.4,-9.4,66,29.96,-9999.0,Calm,Calm,-,N/A,,Overcast,0,2012-12-30 23:35:00
4:55 PM,-0.4,-9.4,66,29.96,-9999.0,Calm,Calm,-,N/A,,Overcast,0,2012-12-30 23:55:00
5:15 PM,-0.4,-7.6,72,29.96,-9999.0,Calm,Calm,-,N/A,,Overcast,0,2012-12-31 00:15:00
5:35 PM,-0.4,-9.4,66,29.96,-9999.0,Calm,Calm,-,N/A,,Overcast,0,2012-12-31 00:35:00
5:55 PM,-0.4,-9.4,66,29.96,-9999.0,Calm,Calm,-,N/A,,Overcast,0,2012-12-31 00:55:00
6:15 PM,-0.4,-9.4,66,29.94,-9999.0,Calm,Calm,-,N/A,,Overcast,0,2012-12-31 01:15:00
6:35 PM,-0.4,-9.4,66,29.94,-9999.0,Calm,Calm,-,N/A,,Overcast,0,2012-12-31 01:35:00
6:55 PM,-0.4,-7.6,72,29.94,-9999.0,Calm,Calm,-,N/A,,Overcast,0,2012-12-31 01:55:00
7:15 PM,-0.4,-7.6,72,29.94,-9999.0,Calm,Calm,-,N/A,,Overcast,0,2012-12-31 02:15:00
7:35 PM,-2.2,-9.4,71,29.93,-9999.0,Calm,Calm,-,N/A,,Overcast,0,2012-12-31 02:35:00
7:55 PM,-2.2,-9.4,71,29.93,-9999.0,Calm,Calm,-,N/A,,Overcast,0,2012-12-31 02:55:00
8:15 PM,-0.4,-9.4,66,29.92,-9999.0,Calm,Calm,-,N/A,,Overcast,0,2012-12-31 03:15:00
8:35 PM,-2.2,-9.4,71,29.92,-9999.0,Calm,Calm,-,N/A,,Overcast,0,2012-12-31 03:35:00
8:55 PM,-0.4,-7.6,72,29.92,-9999.0,Calm,Calm,-,N/A,,Overcast,0,2012-12-31 03:55:00
9:15 PM,-0.4,-7.6,72,29.92,-9999.0,Calm,Calm,-,N/A,,Overcast,0,2012-12-31 04:15:00
9:35 PM,-0.4,-7.6,72,29.92,-9999.0,Calm,Calm,-,N/A,,Overcast,0,2012-12-31 04:35:00
9:55 PM,-0.4,-7.6,72,29.92,-9999.0,Calm,Calm,-,N/A,,Overcast,0,2012-12-31 04:55:00
10:14 PM,1.4,-7.6,66,29.92,-9999.0,Calm,Calm,-,N/A,,Overcast,0,2012-12-31 05:14:00
10:35 PM,1.4,-5.8,72,29.92,-9999.0,Calm,Calm,-,N/A,Snow,Light Snow,0,2012-12-31 05:35:00
10:55 PM,-0.4,-5.8,78,29.92,-9999.0,Calm,Calm,-,N/A,,Overcast,0,2012-12-31 05:55:00
11:14 PM,-0.4,-5.8,78,29.91,-9999.0,Calm,Calm,-,N/A,,Overcast,0,2012-12-31 06:14:00
11:35 PM,-0.4,-5.8,78,29.90,-9999.0,Calm,Calm,-,N/A,,Overcast,0,2012-12-31 06:35:00
11:55 PM,-2.2,-7.6,78,29.90,-9999.0,Calm,Calm,-,N/A,,Mostly Cloudy,0,2012-12-31 06:55:00